Location: Unspecified
(0.0000°N, 0.0000°E)
Time: 15:29:27
(UTC+00:00)

NOSS 3-1 (A) - Pass Details

Date: 24 April 2019
Orbit: 778 x 1434 km, 63.4° (Epoch: 13 May)

Event Time Altitude Azimuth Distance (km) Brightness Sun altitude
Rises 05:27:55 0° 323° (NW) 4,422 6.7 -7.4°
Reaches altitude 10° 05:30:55 10° 318° (NW) 3,491 6.1 -6.7°
Maximum altitude 05:39:10 47° 248° (WSW) 1,832 4.6 -4.7°
Drops below altitude 10° 05:47:24 10° 176° (S) 3,463 6.3 -2.6°
Sets 05:50:23 0° 170° (S) 4,383 6.9 -1.9°
